STARLINK-3086, 49178

Orbit data source: Space-Track

STARLINK-3086, 49178 is a payload satellite owned by SpaceX/Seattle (US) in LEO that was launched on Tue, 14 Sep 2021 UTC via an FALCON 9 launch vehicle from the Air Force Western Test Range (AFWTR). Payload-class satellites include a variety of spacecraft equipped with specific instruments for various scientific and technological missions. These include communications satellites like Starlink; space stations such as the ISS; scientific satellites like the Hubble; Earth observation satellites from companies like Planet Labs, Umbra, and HawkEye 360; GPS; miniature CubeSats for education and research; and military/defense satellites.

Loading next visibility...
Identifier
49178, 2021-082BA
Orbit
LEO
Country
Flag of USUS
Related business
Manufacturer
SpaceX/Seattle
Mission
Operational Commercial Communications
Bus & Motor
STARLINK, Unknown motor
Mass
297 kg wet, ~275 kg dry
Launch date (UTC)
2021-09-14 (5 years ago)
Launch vehicle
FALCON 9
Launch site
Air Force Western Test Range (AFWTR)
Object type
Payload
Rocket body
Debris
Shape & HBR
Box + 1 Pan, 10.1 m
Radar Cross Section
13.562 m², Large (>1 m²)

Expand to show TLE details & history
Last TLE update: 15 hours ago

TLE from 15 hours ago
0 STARLINK-3086
1 49178U 21082BA  26125.49748279  .00000452  00000-0  45641-4 0  9993
2 49178  69.9990 151.2117 0003757 268.4989  91.5740 14.98332158255641
Epoch: 2026-05-05T11:56Z
TLE epoch observation values (Epoch: 2026-05-05T11:56:22.513Z)
Latitude
0.00003°
Longitude
108.74643°
Altitude
574.546 km
Speed
7.574 km/s
True Right ascension
10h 04m 50s
True Declination
0° 00' 00"
Sunlit
Object was in daylight at epoch
Visualization orbit readout
Latitude
Unknown
Longitude
Unknown
Altitude
Unknown
Speed
Unknown
Apparent Right ascension
Unknown
Apparent Declination
Unknown
Sunlit
N/A
Visualization observer readout
Local Sidereal Time
10:39:17
Azimuth
Unknown
Elevation
Unknown
Doppler factor
Unknown
Orbital elements
Apogee altitude
572.608 km
Perigee altitude
567.387 km
Semi-major axis
6,948.135 km
Eccentricity
0.00038
Inclination
69.999°
RAAN
151.2117°
Arg. of periapsis
268.4989°
True anomaly
91.61704°
Mean anomaly
91.574°
Eccentric anomaly
91.59552°
Mean motion
3.74749 °/min
Orbital period
96.06 mins
BSTAR
0.000045641
Loading maneuver chart data...
Computing Atmospheric mass density...

Documentation

Showing up to 5 results
|